Location: *
(51.5000°N, 0.1100°W)
Time: 18:01:58
(UTC+00:00)

Cosmos 1346 Rocket - Pass Details

Date: 25 May 2024
Orbit: 508 x 521 km, 81.2° (Epoch: 16 June)

Event Time Altitude Azimuth Distance (km) Brightness Sun altitude
Rises 00:07:41 0° 351° (N) 2,663 7.9 -17.5°
Reaches altitude 10° 00:09:53 10° 357° (N) 1,771 6.7 -17.4°
Maximum altitude 00:13:41 49° 73° (ENE) 681 3.4 -17.4°
Enters shadow 00:15:27 27° 135° (SE) 1,024 3.8 -17.4°
